ONEWEB-0045 (45151 NORAD) Tracking and Keplerian Element Data

This shows tracking and keplerian element data for the satellite.

Feedback or suggestion? Click here.




ElementValue
Catalog45151
NameONEWEB-0045
Epoch Orbit833
Epoch Day87.6003546
Epoch Year2020
RAAN147.4398
Inclination87.4293
Eccentricity0.0018141
Argument of Perigee116.5938
Mean Anonmoly243.7152
Mean Motion14.91307164
Decay Rate-0.0023301
L11 45151U 20008W 20087.60035460 -.00233010 00000-0 -24136-1 0 9995
L22 45151 87.4293 147.4398 0018141 116.5938 243.7152 14.91307164 8339

Live tracking and technical data element details for ONEWEB-0045 (NORAD 45151). ONEWEB-0045 can be tracked NOW for your location showing map with azimuth and elevation plus other details from your city location.

Track the satellite on the map from your city or location and see movement details for azimuth, elevation, latitude, longitude, range, height, and movement on the map or in text.







IsCatalogInMostPopularTable: catalog: 45151, numindb: 9
Update: records affected: 1



GetName: 45151 ONEWEB-0045

Hit Count: updated at: Tue, 31 Mar 2020 12:27:48 GMT